OAL1CG EPLL-LGKO

Flight info

Callsign OAL1CG
Flight time N/A
Altitude 39000
Route VIDEV N133 GOSAK DCT KOJOT DCT RULES DCT AGNEP DCT OSTOV M748 GOL N181 NIKTI UN127 LMO UL618 MES UL609 LARKI
Aircraft B772/H-SDE2E3FGHIJ5LORVWXY/LB1D1

Departure

Time 2026-05-07 08:25
Airport Łódź Władysław Reymont Airport (EPLL)

Arrival

Time N/A
Airport Kos International Airport "Ippokratis" (LGKO)
Time Latitude Longitude Altitude Speed Heading
2026-05-07 08:16 51.72508 19.40102 592 ft 0 kts 354°
2026-05-07 08:17 51.72517 19.40100 630 ft 1 kts 354°
2026-05-07 08:17 51.72527 19.40099 625 ft 1 kts
2026-05-07 08:18 51.72538 19.40102 629 ft 1 kts 18°
2026-05-07 08:18 51.72547 19.40111 622 ft 1 kts 36°
2026-05-07 08:18 51.72554 19.40123 633 ft 1 kts 53°
2026-05-07 08:18 51.72558 19.40135 633 ft 0 kts 67°
2026-05-07 08:20 51.72567 19.40168 629 ft 7 kts 68°
2026-05-07 08:20 51.72581 19.40240 625 ft 7 kts 77°
2026-05-07 08:20 51.72586 19.40317 619 ft 7 kts 89°
2026-05-07 08:21 51.72580 19.40392 623 ft 7 kts 111°
2026-05-07 08:21 51.72551 19.40454 626 ft 7 kts 128°
2026-05-07 08:21 51.72519 19.40510 631 ft 7 kts 137°
2026-05-07 08:21 51.72479 19.40550 630 ft 7 kts 160°
2026-05-07 08:22 51.72434 19.40575 623 ft 7 kts 161°
2026-05-07 08:22 51.72389 19.40600 625 ft 7 kts 161°
2026-05-07 08:22 51.72357 19.40594 629 ft 3 kts 238°
2026-05-07 08:22 51.72355 19.40585 628 ft 0 kts 252°
2026-05-07 08:24 51.72355 19.40582 628 ft 5 kts 253°
2026-05-07 08:24 51.72317 19.40392 622 ft 52 kts 250°
2026-05-07 08:24 51.72114 19.39467 598 ft 121 kts 251°
2026-05-07 08:24 51.71760 19.37899 695 ft 165 kts 251°
2026-05-07 08:25 51.71351 19.36217 1500 ft 162 kts 252°
2026-05-07 08:25 51.70967 19.34452 2170 ft 168 kts 252°
2026-05-07 08:25 51.70562 19.32604 2537 ft 185 kts 251°
2026-05-07 08:25 51.70157 19.30540 2824 ft 198 kts 264°
2026-05-07 08:26 51.71033 19.26330 3493 ft 213 kts 306°
2026-05-07 08:26 51.72282 19.24908 3640 ft 234 kts 341°
2026-05-07 08:26 51.73918 19.24184 3834 ft 253 kts 342°
2026-05-07 08:27 51.75691 19.23873 4161 ft 266 kts
2026-05-07 08:27 51.77381 19.25161 4725 ft 276 kts 41°
2026-05-07 08:27 51.78449 19.27705 5384 ft 276 kts 69°
2026-05-07 08:27 51.79098 19.30661 5898 ft 283 kts 72°
2026-05-07 08:28 51.79469 19.33754 6416 ft 283 kts 94°
2026-05-07 08:28 51.79234 19.36907 6895 ft 286 kts 99°
2026-05-07 08:28 51.78979 19.40058 7501 ft 289 kts 99°
2026-05-07 08:28 51.78736 19.43294 8135 ft 292 kts 99°
2026-05-07 08:29 51.78495 19.46577 8763 ft 297 kts 99°
2026-05-07 08:29 51.78252 19.49909 9411 ft 300 kts 99°
2026-05-07 08:29 51.77881 19.53208 9912 ft 300 kts 115°
2026-05-07 08:29 51.76735 19.56031 10126 ft 307 kts 140°
2026-05-07 08:30 51.75084 19.58339 10261 ft 324 kts 143°
2026-05-07 08:30 51.73305 19.60759 10417 ft 346 kts 143°
2026-05-07 08:30 51.71428 19.63350 10756 ft 362 kts 142°
2026-05-07 08:30 51.69497 19.66043 11384 ft 371 kts 142°
2026-05-07 08:31 51.67529 19.68766 12183 ft 373 kts 144°
2026-05-07 08:31 51.65340 19.70955 12909 ft 373 kts 158°
2026-05-07 08:31 51.62938 19.72597 13789 ft 377 kts 160°
2026-05-07 08:31 51.60513 19.74247 14681 ft 379 kts 160°
2026-05-07 08:32 51.58092 19.75963 15570 ft 382 kts 159°
2026-05-07 08:32 51.55655 19.77742 16417 ft 387 kts 159°
2026-05-07 08:32 51.53188 19.79560 17264 ft 391 kts 159°
2026-05-07 08:32 51.50676 19.81277 18097 ft 394 kts 163°
2026-05-07 08:33 51.48056 19.82626 18864 ft 397 kts 166°
2026-05-07 08:33 51.45401 19.83901 19647 ft 400 kts 166°
2026-05-07 08:33 51.42728 19.85222 20435 ft 404 kts 166°
2026-05-07 08:33 51.40044 19.86611 21199 ft 407 kts 166°
2026-05-07 08:34 51.37336 19.88034 21942 ft 411 kts 166°
2026-05-07 08:34 51.34609 19.89466 22677 ft 415 kts 166°
2026-05-07 08:34 51.31886 19.90884 23363 ft 419 kts 166°
2026-05-07 08:34 51.29101 19.92328 23942 ft 422 kts 166°
2026-05-07 08:35 51.26295 19.93781 24513 ft 425 kts 166°
2026-05-07 08:35 51.23468 19.95244 25073 ft 427 kts 167°
2026-05-07 08:35 51.20629 19.96706 25599 ft 430 kts 167°
2026-05-07 08:35 51.17763 19.98163 26079 ft 434 kts 167°
2026-05-07 08:36 51.14876 19.99627 26553 ft 437 kts 167°
2026-05-07 08:36 51.11970 20.01100 27028 ft 439 kts 167°
2026-05-07 08:36 51.09047 20.02585 27510 ft 442 kts 167°
2026-05-07 08:36 51.06110 20.04092 27952 ft 444 kts 167°
2026-05-07 08:37 51.03163 20.05610 28377 ft 447 kts 167°
2026-05-07 08:37 51.00198 20.07138 28770 ft 449 kts 167°
2026-05-07 08:37 50.97211 20.08674 29141 ft 452 kts 167°
2026-05-07 08:37 50.94219 20.10208 29493 ft 454 kts 167°
2026-05-07 08:38 50.91243 20.11729 29815 ft 456 kts 167°
2026-05-07 08:38 50.88181 20.13284 30096 ft 458 kts 167°
2026-05-07 08:38 50.85140 20.14819 30348 ft 459 kts 167°
2026-05-07 08:38 50.82099 20.16352 30663 ft 459 kts 167°
2026-05-07 08:39 50.79105 20.17861 31044 ft 457 kts 167°
2026-05-07 08:39 50.76079 20.19386 31420 ft 455 kts 167°
2026-05-07 08:39 50.73064 20.20903 31767 ft 454 kts 167°
2026-05-07 08:39 50.70056 20.22414 32104 ft 453 kts 167°
2026-05-07 08:40 50.67050 20.23922 32420 ft 453 kts 167°
2026-05-07 08:40 50.64059 20.25455 32746 ft 453 kts 165°
2026-05-07 08:40 50.61094 20.27200 33054 ft 453 kts 163°
2026-05-07 08:40 50.58155 20.28978 33404 ft 453 kts 163°
2026-05-07 08:41 50.55217 20.30741 33742 ft 452 kts 164°
2026-05-07 08:41 50.52269 20.32423 34054 ft 450 kts 165°
2026-05-07 08:41 50.50306 20.33503 34218 ft 450 kts 165°